W4SNA-2 Weather Reports


time (UTC)temp
C
wind
direction
speed
KPH
gust
KPH
rain 1hr
cm
rain 24hr
cm
rain mn
cm
humidity
%
barometer
mb
20260508113458 8 0 0.0 0.0 0.00 0.20 0.18 70 1018.1
20260508112958 8 0 0.0 4.8 0.00 0.20 0.18 68 1018.1
20260508112458 7 0 0.0 9.7 0.00 0.20 0.18 67 1018.0
20260508111958 7 0 0.0 14.5 0.00 0.20 0.18 69 1018.0
20260508111459 7 328 1.6 14.5 0.00 0.20 0.18 68 1017.8
20260508110958 7 328 3.2 20.9 0.00 0.20 0.18 68 1017.7
20260508110458 7 328 6.4 20.9 0.00 0.20 0.18 67 1017.6
20260508105958 7 328 4.8 19.3 0.00 0.20 0.18 67 1017.5
20260508105458 7 0 0.0 24.1 0.00 0.20 0.18 67 1017.5
20260508104958 7 328 1.6 24.1 0.00 0.20 0.18 67 1017.4
20260508104458 7 328 4.8 14.5 0.00 0.20 0.18 67 1017.3
20260508103958 7 329 4.8 14.5 0.00 0.20 0.18 67 1017.2
20260508103458 7 329 4.8 14.5 0.00 0.20 0.18 68 1017.2
20260508103000 7 330 4.8 14.5 0.00 0.20 0.18 68 1017.1
20260508102458 7 0 0.0 16.1 0.00 0.20 0.18 67 1017.0
20260508101959 7 0 0.0 41.8 0.00 0.20 0.18 68 1017.0
20260508101458 7 330 6.4 41.8 0.00 0.20 0.18 67 1016.9
20260508100737 7 329 11.3 25.7 0.00 0.20 0.18 68 1016.9
20260508100237 7 334 11.3 20.9 0.00 0.20 0.18 69 1016.7
20260508095739 7 333 6.4 19.3 0.00 0.20 0.18 71 1016.7
20260508095421 7 334 3.2 24.1 0.00 0.20 0.18 71 1016.5
20260508095237 7 334 1.6 19.3 0.00 0.20 0.18 70 1016.6
20260508094738 7 334 3.2 24.1 0.00 0.20 0.18 71 1016.5
20260508094237 7 331 8.0 25.7 0.00 0.20 0.18 71 1016.5
20260508093737 7 332 4.8 25.7 0.00 0.20 0.18 71 1016.4
20260508093237 7 331 12.9 22.5 0.00 0.20 0.18 72 1016.3
20260508092737 7 330 6.4 16.1 0.00 0.20 0.18 71 1016.2
20260508092551 7 327 4.8 16.1 0.00 0.20 0.18 73 1016.2
20260508092237 7 330 1.6 12.9 0.00 0.20 0.18 70 1016.3
20260508091237 7 331 1.6 20.9 0.00 0.20 0.18 72 1016.2
20260508090736 7 331 3.2 19.3 0.00 0.20 0.18 73 1016.1
20260508090236 7 327 4.8 16.1 0.00 0.20 0.18 73 1016.2
20260508085736 7 0 0.0 19.3 0.00 0.20 0.18 73 1016.2
20260508085236 7 0 0.0 20.9 0.00 0.20 0.18 73 1016.1
20260508084736 7 325 3.2 27.4 0.00 0.20 0.18 72 1016.0
20260508084236 7 323 8.0 27.4 0.00 0.20 0.18 72 1016.1
20260508083736 7 323 4.8 25.7 0.00 0.20 0.18 71 1016.1
20260508083236 7 323 11.3 25.7 0.00 0.20 0.18 72 1015.9
20260508082736 7 323 9.7 17.7 0.00 0.20 0.18 73 1015.8
20260508082238 7 324 3.2 16.1 0.00 0.20 0.18 73 1015.8
20260508081736 7 326 1.6 20.9 0.00 0.20 0.18 74 1015.8
20260508081237 8 326 3.2 20.9 0.00 0.20 0.18 73 1015.7
20260508081157 8 0 0.0 8.0 0.00 0.20 0.18 74 1015.5
20260508080500 8 328 6.4 29.0 0.00 0.20 0.18 73 1015.5
20260508080000 8 328 1.6 17.7 0.00 0.20 0.18 74 1015.6
20260508075500 8 328 1.6 17.7 0.00 0.20 0.18 74 1015.5
20260508075000 8 328 1.6 9.7 0.00 0.20 0.18 75 1015.5
20260508074500 8 0 0.0 8.0 0.00 0.20 0.18 74 1015.5
20260508073627 8 327 4.8 19.3 0.00 0.20 0.18 76 1015.2
20260508073557 8 327 3.2 17.7 0.00 0.20 0.18 75 1015.4
20260508073057 8 326 1.6 17.7 0.00 0.20 0.18 75 1015.3
20260508072559 8 323 4.8 17.7 0.00 0.20 0.18 74 1015.3
20260508072057 8 326 4.8 17.7 0.00 0.20 0.18 75 1015.2
20260508071558 8 327 4.8 19.3 0.00 0.20 0.18 76 1015.2
20260508071101 8 328 3.2 19.3 0.00 0.20 0.18 75 1015.2
20260508070557 8 326 8.0 19.3 0.00 0.20 0.18 76 1015.2
20260508070057 8 325 6.4 19.3 0.00 0.20 0.18 75 1015.1
20260508065558 8 327 4.8 27.4 0.00 0.20 0.18 76 1015.1
20260508065057 8 316 9.7 27.4 0.00 0.20 0.18 75 1015.1
20260508064255 9 319 6.4 16.1 0.00 0.20 0.18 74 1015.4
20260508063755 9 329 1.6 14.5 0.00 0.20 0.18 74 1015.4
20260508063256 9 340 1.6 16.1 0.00 0.20 0.18 74 1015.3
20260508062754 9 326 3.2 16.1 0.00 0.20 0.18 75 1015.1
20260508062301 9 0 0.0 12.9 0.00 0.20 0.18 76 1015.3
20260508061754 9 355 4.8 19.3 0.00 0.20 0.18 76 1015.3
20260508061254 9 356 4.8 19.3 0.00 0.20 0.18 76 1016.2
20260508060754 9 325 4.8 16.1 0.00 0.20 0.18 76 1016.2
20260508060256 9 353 4.8 16.1 0.00 0.20 0.18 76 1016.1
20260508055433 9 323 8.0 27.4 0.00 0.20 0.18 76 1016.2
20260508054931 9 345 11.3 27.4 0.00 0.20 0.18 77 1016.1
20260508054432 9 335 8.0 17.7 0.00 0.20 0.18 75 1016.0
20260508053931 9 334 6.4 14.5 0.00 0.20 0.18 77 1016.1
20260508053432 9 318 6.4 14.5 0.00 0.20 0.18 77 1016.1
20260508052739 9 326 6.4 16.1 0.00 0.20 0.18 78 1016.1
20260508051853 9 327 4.8 14.5 0.00 0.20 0.18 78 1016.1
20260508051352 9 327 4.8 14.5 0.00 0.20 0.18 77 1016.0
20260508050854 9 329 3.2 19.3 0.00 0.20 0.18 79 1016.0
20260508050354 9 329 4.8 19.3 0.00 0.23 0.18 77 1016.0
20260508045854 10 328 3.2 14.5 0.00 0.23 0.18 77 1016.0
20260508045353 10 322 4.8 14.5 0.00 0.23 0.18 77 1016.1
20260508044855 10 0 0.0 12.9 0.00 0.23 0.18 77 1016.1
20260508044354 9 0 0.0 12.9 0.00 0.23 0.18 77 1016.0
20260508043853 9 0 0.0 9.7 0.00 0.23 0.18 78 1015.8
20260508043236 9 0 0.0 17.7 0.00 0.23 0.18 78 1015.6
20260508042736 9 325 1.6 17.7 0.00 0.23 0.18 79 1015.7
20260508042236 9 0 0.0 9.7 0.00 0.23 0.18 78 1015.5
20260508041736 9 325 3.2 12.9 0.00 0.23 0.18 78 1015.4
20260508041236 9 325 4.8 16.1 0.00 0.23 0.18 78 1015.4
20260508040736 9 325 1.6 16.1 0.00 0.23 0.18 79 1015.3
20260508040236 10 324 3.2 12.9 0.00 0.23 0.18 78 1015.4
20260508035736 10 324 3.2 12.9 0.00 0.23 0.18 78 1015.4
20260508035236 10 325 1.6 9.7 0.00 0.23 0.18 77 1015.3
20260508034737 10 0 0.0 9.7 0.00 0.23 0.18 77 1015.3
20260508034236 10 0 0.0 9.7 0.00 0.23 0.18 77 1015.3
20260508033413 10 324 1.6 14.5 0.00 0.23 0.18 78 1015.2
20260508032913 10 324 1.6 16.1 0.00 0.23 0.18 78 1015.2
20260508032414 10 324 6.4 19.3 0.00 0.25 0.18 79 1015.0
20260508031913 9 329 4.8 27.4 0.00 0.28 0.18 80 1014.9
20260508031414 9 327 8.0 27.4 0.00 0.28 0.18 80 1014.8
20260508030105 9 321 6.4 14.5 0.00 0.33 0.18 81 1014.8
20260508025606 9 327 6.4 12.9 0.00 0.33 0.18 82 1014.7
20260508025106 9 328 6.4 17.7 0.00 0.33 0.18 81 1014.7
20260508024607 10 325 8.0 19.3 0.00 0.36 0.18 81 1014.6
20260508024106 10 319 9.7 19.3 0.00 0.36 0.18 80 1014.7
20260508023606 10 322 4.8 17.7 0.00 0.36 0.18 80 1014.5
20260508023105 10 320 4.8 17.7 0.00 0.36 0.18 80 1014.5
20260508022607 10 323 4.8 12.9 0.00 0.36 0.18 80 1014.3
20260508022104 10 322 3.2 16.1 0.00 0.36 0.18 79 1014.4
20260508021604 10 350 3.2 16.1 0.00 0.38 0.18 79 1014.3
20260508021105 10 318 4.8 14.5 0.00 0.38 0.18 78 1014.3
20260508020606 10 315 4.8 14.5 0.00 0.38 0.18 78 1014.2
20260508020104 10 335 6.4 16.1 0.00 0.38 0.18 78 1014.0
20260508015604 10 348 3.2 22.5 0.00 0.38 0.18 78 1013.8
20260508015106 10 324 3.2 22.5 0.00 0.41 0.18 79 1013.8
20260508014605 10 325 9.7 25.7 0.00 0.41 0.18 81 1013.7
20260508014106 10 316 8.0 25.7 0.00 0.41 0.18 80 1013.6
20260508013604 10 325 12.9 24.1 0.00 0.41 0.18 82 1013.6
20260508013106 10 326 4.8 17.7 0.00 0.41 0.18 82 1013.5
20260508012604 10 332 4.8 14.5 0.00 0.41 0.18 82 1013.5
20260508012104 10 324 4.8 12.9 0.00 0.41 0.18 80 1013.4
20260508011606 10 0 0.0 14.5 0.00 0.41 0.18 80 1013.3
20260508011106 10 319 4.8 17.7 0.00 0.43 0.18 80 1013.2
20260508010606 10 360 4.8 17.7 0.00 0.43 0.18 81 1013.0
20260508005735 10 0 0.0 17.7 0.00 0.43 0.18 83 1012.9
20260508005235 10 331 1.6 17.7 0.00 0.43 0.18 85 1012.8
20260508004735 10 331 4.8 20.9 0.00 0.43 0.18 85 1012.9
20260508004235 10 339 6.4 20.9 0.00 0.43 0.18 84 1012.9
20260508003735 10 0 0.0 33.8 0.00 0.43 0.18 85 1013.1
20260508003235 10 333 11.3 33.8 0.00 0.43 0.18 84 1012.8
20260508002735 11 333 8.0 24.1 0.00 0.43 0.18 84 1012.8
20260508002235 11 348 9.7 24.1 0.00 0.43 0.18 83 1012.8
20260508001735 11 323 9.7 20.9 0.00 0.43 0.18 85 1012.9
20260508001235 11 330 9.7 20.9 0.00 0.43 0.18 89 1012.9
20260508000735 11 314 4.8 14.5 0.00 0.43 0.18 92 1012.9
20260508000235 11 318 3.2 24.1 0.00 0.43 0.18 92 1012.7
20260507235735 11 325 3.2 24.1 0.00 0.43 0.18 94 1012.7
20260507235236 11 336 4.8 20.9 0.00 0.43 0.18 95 1012.7
20260507234735 11 325 1.6 19.3 0.00 0.43 0.18 96 1012.5
20260507234235 11 344 3.2 33.8 0.00 0.43 0.18 97 1012.5
20260507233735 11 324 6.4 33.8 0.00 0.43 0.18 98 1012.3
20260507233235 11 333 6.4 27.4 0.00 0.43 0.18 99 1012.2
20260507232735 11 310 4.8 22.5 0.00 0.43 0.18 99 1012.1
20260507232235 11 324 4.8 16.1 0.00 0.43 0.18 100 1012.1
20260507231735 11 323 3.2 16.1 0.00 0.43 0.18 100 1012.0
20260507231235 11 9 4.8 16.1 0.00 0.43 0.18 100 1011.8
20260507230735 11 323 6.4 16.1 0.00 0.43 0.18 100 1011.7
20260507230235 11 341 4.8 16.1 0.00 0.43 0.18 100 1011.7
20260507225722 11 313 6.4 17.7 0.00 0.43 0.18 100 1011.7
20260507225222 11 327 6.4 17.7 0.00 0.43 0.18 100 1011.7
20260507224722 11 337 4.8 17.7 0.00 0.43 0.18 100 1011.7
20260507224224 11 0 0.0 4.8 0.00 0.43 0.18 100 1011.6
20260507223722 11 0 0.0 1.6 0.00 0.43 0.18 100 1011.6
20260507223222 12 0 0.0 1.6 0.00 0.43 0.18 100 1011.6
20260507222722 11 0 0.0 3.2 0.00 0.43 0.18 100 1011.5
20260507222225 11 0 0.0 3.2 0.00 0.43 0.18 100 1011.4
20260507221722 11 0 0.0 9.7 0.00 0.43 0.18 100 1011.4
20260507221222 11 0 0.0 9.7 0.00 0.43 0.18 100 1011.4
20260507220722 11 0 0.0 4.8 0.00 0.43 0.18 100 1011.3
20260507220222 12 0 0.0 1.6 0.00 0.43 0.18 100 1011.2
20260507215722 12 0 0.0 17.7 0.00 0.43 0.18 100 1011.1
20260507215222 12 335 4.8 17.7 0.00 0.43 0.18 100 1010.9
20260507214722 12 335 3.2 17.7 0.00 0.43 0.18 100 1010.9
20260507214222 12 0 0.0 17.7 0.00 0.43 0.18 100 1010.9
20260507213722 11 343 3.2 16.1 0.00 0.43 0.18 100 1010.9
20260507213223 12 0 0.0 0.0 0.00 0.43 0.18 100 1011.0
20260507212722 12 0 0.0 6.4 0.00 0.43 0.18 100 1011.0
20260507212222 11 0 0.0 6.4 0.00 0.43 0.18 100 1011.0
20260507210847 11 345 6.4 19.3 0.00 0.43 0.18 100 1010.7
20260507210347 11 0 0.0 14.5 0.00 0.43 0.18 100 1010.7
20260507205847 11 0 0.0 14.5 0.00 0.43 0.18 100 1010.7
20260507205347 11 346 1.6 16.1 0.00 0.43 0.18 100 1010.7
20260507204847 11 346 8.0 16.1 0.00 0.43 0.18 100 1010.6
20260507203429 11 357 1.6 20.9 0.00 0.43 0.18 100 1010.2
20260507202927 11 59 8.0 17.7 0.03 0.43 0.18 100 1010.5
20260507202425 11 342 1.6 14.5 0.08 0.43 0.18 100 1010.6
20260507201927 11 342 4.8 22.5 0.10 0.43 0.18 100 1010.8
20260507201425 11 336 9.7 22.5 0.10 0.43 0.18 100 1010.7
20260507200928 11 340 12.9 22.5 0.10 0.43 0.18 100 1010.9
20260507200425 11 356 9.7 22.5 0.10 0.43 0.18 100 1011.8
20260507195927 11 343 8.0 22.5 0.10 0.43 0.18 100 1011.7
20260507195428 11 344 11.3 19.3 0.10 0.43 0.18 100 1011.7
20260507194928 11 343 11.3 17.7 0.10 0.43 0.18 100 1011.6
20260507194426 11 349 9.7 24.1 0.10 0.43 0.18 100 1011.8
20260507193925 11 338 9.7 24.1 0.13 0.43 0.18 100 1011.8
20260507193425 11 347 14.5 24.1 0.13 0.43 0.18 100 1011.5
20260507192925 11 339 12.9 24.1 0.10 0.41 0.15 100 1011.9
20260507192427 11 339 11.3 20.9 0.05 0.36 0.10 100 1012.2
20260507191925 11 345 11.3 19.3 0.03 0.33 0.08 100 1011.6
20260507191425 11 336 11.3 27.4 0.03 0.33 0.08 100 1011.6
20260507190925 11 342 14.5 27.4 0.03 0.33 0.08 100 1011.5
20260507190425 11 343 16.1 24.1 0.03 0.33 0.08 100 1011.5
20260507190134 11 341 4.8 19.3 0.03 0.33 0.08 100 1011.7
20260507185925 11 341 4.8 19.3 0.03 0.33 0.08 100 1011.7
20260507185425 11 343 1.6 20.9 0.03 0.33 0.08 100 1011.6
20260507184925 11 340 9.7 24.1 0.03 0.33 0.08 100 1011.7
20260507184425 11 341 12.9 27.4 0.03 0.33 0.08 100 1011.6
20260507183927 11 346 14.5 27.4 0.00 0.30 0.05 100 1011.8
20260507183206 11 346 9.7 27.4 0.00 0.30 0.05 100 1011.7
20260507182704 11 346 16.1 29.0 0.00 0.30 0.05 100 1011.6
20260507182204 11 343 16.1 29.0 0.00 0.30 0.05 100 1011.7
20260507181704 11 349 12.9 29.0 0.00 0.30 0.05 100 1011.7
20260507181205 11 0 0.0 27.4 0.00 0.30 0.05 100 1011.7
20260507180704 11 359 1.6 27.4 0.00 0.30 0.05 100 1011.6
20260507180204 11 360 12.9 22.5 0.05 0.30 0.05 100 1011.6
20260507175705 11 10 11.3 20.9 0.05 0.33 0.05 100 1011.6
20260507175204 12 347 11.3 17.7 0.05 0.33 0.05 100 1011.8
20260507174704 12 346 8.0 20.9 0.05 0.33 0.05 100 1011.8
20260507174205 12 11 9.7 20.9 0.05 0.33 0.05 100 1011.9
20260507173204 12 1 3.2 12.9 0.05 0.36 0.05 100 1011.9
20260507172704 12 346 1.6 14.5 0.05 0.36 0.05 100 1011.9
20260507172204 12 340 3.2 16.1 0.05 0.36 0.05 100 1012.0
20260507171705 12 341 4.8 17.7 0.05 0.36 0.05 100 1011.9
20260507171206 12 328 8.0 19.3 0.05 0.36 0.05 100 1011.9
20260507170704 12 350 4.8 19.3 0.05 0.36 0.05 100 1011.9
20260507170204 12 352 8.0 19.3 0.00 0.30 0.00 100 1011.9
20260507165706 12 3 9.7 25.7 0.00 0.30 0.00 100 1011.8
20260507165205 12 333 6.4 25.7 0.00 0.30 0.00 100 1011.8
20260507164705 13 340 9.7 19.3 0.00 0.30 0.00 100 1011.7
20260507164204 13 360 8.0 20.9 0.00 0.30 0.00 100 1011.6
20260507163704 13 340 11.3 20.9 0.00 0.30 0.00 100 1011.4
20260507163204 13 347 8.0 16.1 0.00 0.30 0.00 100 1011.5
20260507162626 13 348 17.7 29.0 0.00 0.30 0.00 100 1011.6
20260507162031 13 336 8.0 19.3 0.00 0.30 0.00 100 1011.7
20260507161016 13 353 8.0 19.3 0.00 0.30 0.00 100 1011.8
20260507155619 13 346 6.4 12.9 0.00 0.33 0.30 100 1012.0
20260507155123 13 345 1.6 6.4 0.00 0.33 0.30 100 1012.1
20260507154619 13 0 0.0 6.4 0.00 0.33 0.30 100 1012.0
20260507154121 13 0 0.0 8.0 0.00 0.33 0.30 100 1011.9
20260507153618 13 345 3.2 8.0 0.00 0.33 0.30 100 1011.8
20260507153118 13 0 0.0 4.8 0.00 0.33 0.30 100 1011.8
20260507152618 13 0 0.0 8.0 0.00 0.33 0.30 100 1011.8
20260507152118 13 342 3.2 9.7 0.00 0.33 0.30 100 1011.9
20260507151618 13 0 0.0 17.7 0.00 0.33 0.30 100 1011.9
20260507151126 13 340 3.2 17.7 0.00 0.33 0.30 100 1012.0
20260507150619 13 340 3.2 9.7 0.00 0.33 0.30 100 1012.1
20260507150118 13 0 0.0 14.5 0.00 0.33 0.30 100 1012.2
20260507145618 13 0 0.0 16.1 0.00 0.33 0.30 100 1012.1
20260507145118 14 338 4.8 17.7 0.00 0.33 0.30 99 1012.1
20260507144619 14 335 8.0 17.7 0.00 0.33 0.30 100 1012.0
20260507144119 15 322 6.4 17.7 0.00 0.33 0.30 100 1012.2
20260507143619 16 0 0.0 0.0 0.00 0.33 0.30 100 1012.1
20260507143118 16 0 0.0 0.0 0.00 0.33 0.30 100 1012.0
20260507142618 15 0 0.0 0.0 0.00 0.33 0.30 100 1011.9
20260507142118 16 0 0.0 0.0 0.00 0.33 0.30 100 1011.7
20260507141620 15 0 0.0 0.0 0.00 0.33 0.30 100 1011.8
20260507141118 15 0 0.0 0.0 0.00 0.33 0.30 100 1011.9
20260507140620 15 0 0.0 0.0 0.00 0.33 0.30 100 1011.7
20260507140118 15 0 0.0 0.0 0.00 0.33 0.30 100 1011.6
20260507135706 15 0 0.0 0.0 0.00 0.33 0.30 100 1011.5
20260507135620 15 0 0.0 0.0 0.00 0.33 0.30 100 1011.5
20260507134935 15 0 0.0 0.0 0.00 0.33 0.30 100 1011.6
20260507134436 15 0 0.0 0.0 0.00 0.33 0.30 100 1011.8
20260507133935 16 0 0.0 0.0 0.00 0.33 0.30 100 1011.7
20260507133435 16 0 0.0 0.0 0.00 0.33 0.30 100 1011.7
20260507132939 16 0 0.0 0.0 0.00 0.33 0.30 100 1011.7
20260507132435 16 0 0.0 0.0 0.00 0.33 0.30 100 1011.9
20260507131936 16 0 0.0 0.0 0.00 0.33 0.30 100 1011.7
20260507131437 16 0 0.0 0.0 0.00 0.33 0.30 100 1012.0
20260507130937 16 0 0.0 0.0 0.00 0.33 0.30 100 1012.1
20260507130435 15 0 0.0 0.0 0.00 0.33 0.30 100 1012.5
20260507125935 15 0 0.0 0.0 0.03 0.33 0.30 100 1012.7
20260507125435 15 0 0.0 0.0 0.03 0.33 0.30 100 1012.7
20260507124935 15 0 0.0 0.0 0.03 0.33 0.30 100 1012.6
20260507124441 15 0 0.0 0.0 0.03 0.33 0.30 100 1012.5
20260507123941 15 0 0.0 0.0 0.03 0.33 0.30 100 1012.7
20260507123437 15 0 0.0 0.0 0.03 0.33 0.30 100 1013.1
20260507122935 15 0 0.0 1.6 0.03 0.33 0.30 100 1013.0
20260507122435 15 0 0.0 1.6 0.03 0.33 0.30 100 1013.0
20260507121935 15 0 0.0 0.0 0.03 0.33 0.30 100 1013.1
20260507121438 15 0 0.0 0.0 0.03 0.33 0.30 100 1013.2
20260507120935 15 0 0.0 11.3 0.03 0.33 0.30 100 1013.2
20260507120435 15 0 0.0 11.3 0.03 0.33 0.30 100 1012.7
20260507115936 15 0 0.0 4.8 0.00 0.30 0.28 100 1012.6
20260507115436 15 0 0.0 0.0 0.00 0.30 0.28 100 1012.7
20260507114936 15 0 0.0 0.0 0.00 0.30 0.28 100 1012.4
20260507114438 15 0 0.0 3.2 0.00 0.30 0.28 100 1012.6
20260507113935 15 0 0.0 3.2 0.00 0.30 0.28 100 1012.7